User: anonymous   Login
Location: Unspecified
(0.0000°N, 0.0000°E)
Time: 19:58:16
(UTC+00:00)
Language:

PAYLOAD E - Orbit

View from above orbital plane
View from above orbital plane
View from above satellite
View from above satellite

Ground track
Ground track

The orbit data is extracted from the following two-line orbital elements,

1 27059U 01058E   21025.74262516 -.00000026  00000-0 -20431-3 0  9993
2 27059  82.5406  33.1879 0002032  68.0266 292.1040 12.61493988878604
Epoch (UTC): 25 January 2021 17:49:22
Eccentricity: 0.0002032
inclination: 82.5406°
perigee height: 1415 km
apogee height: 1418 km
right ascension of ascending node: 33.1879°
argument of perigee: 68.0266°
revolutions per day: 12.61493988
mean anomaly at epoch: 292.1040°
orbit number at epoch: 87860

The dashed part of the orbit path shows where the satellite is in the earth's shadow,  

DLR